Location: Waning Moon II Observatory
(30.3730°N, 89.7620°W)
Time: 04:25:06
(UTC-05:00)

Meteor 1-21 - Visible Passes

Search period start: 01 April 2015 00:00
Search period end: 11 April 2015 00:00
Orbit: 844 x 889 km, 81.2° (Epoch: 31 March)

Date Brightness Start Highest point End Pass type
(mag) Time Alt. Az. Time Alt. Az. Time Alt. Az.
01 Apr 6.1 05:01:50 10° SSE 05:06:32 30° E 05:11:22 10° NNE visible
02 Apr 6.0 04:54:33 10° SSE 04:59:17 30° E 05:04:08 10° NNE visible
03 Apr 6.0 04:47:17 10° SSE 04:52:01 30° E 04:56:55 10° NNE visible
04 Apr 5.9 04:40:00 10° SSE 04:44:46 31° E 04:49:40 10° NNE visible
05 Apr 5.9 04:32:42 10° SSE 04:37:31 31° E 04:42:26 10° NNE visible
05 Apr 5.3 06:16:17 10° SW 06:20:49 24° WNW 06:25:15 10° NNW visible
06 Apr 5.8 04:25:26 10° SSE 04:30:14 32° E 04:35:12 10° NNE visible
06 Apr 5.3 06:09:03 10° SW 06:13:34 24° WNW 06:17:58 10° NNW visible
07 Apr 5.8 04:18:43 13° SSE 04:22:59 32° E 04:27:57 10° NNE visible
07 Apr 5.3 06:01:49 10° SW 06:06:19 24° WNW 06:10:42 10° NNW visible
08 Apr 5.7 04:12:27 18° SE 04:15:43 32° E 04:20:43 10° NNE visible
08 Apr 5.3 05:54:51 11° SW 05:59:04 24° WNW 06:03:26 10° NNW visible
09 Apr 5.7 04:06:02 23° SE 04:08:28 33° E 04:13:28 10° NNE visible
09 Apr 5.3 05:48:26 14° WSW 05:51:49 23° WNW 05:56:09 10° NNW visible
10 Apr 5.6 03:59:32 28° SE 04:01:12 33° E 04:06:14 10° NNE visible
10 Apr 5.4 05:41:56 17° WSW 05:44:34 23° WNW 05:48:53 10° NNW visible
